Regional Weather Roundup
Issued by NWS

Home | Current Version | Previous Version | Graphics & Text | Print | Product List | Glossary On
Versions: 1 2 3 4 5 6 7 8 9 10 11 12 13 14 15 16 17 18 19 20 21 22 23 24 25 26 27
000
ASUS45 KSLC 230710
RWRUT

UTAH REGIONAL WEATHER ROUNDUP
NATIONAL WEATHER SERVICE SALT LAKE CITY UT
100 AM MDT SUN APR 23 2017

UTZ001>011-023>025-230800-

NORTHERN UTAH

CITY           SKY/WX    TMP DP  RH WIND       PRES   REMARKS
BRIGHAM CITY   PTCLDY    46  39  79 W3        29.99F
HILL AFB       NOT AVBL
LOGAN          CLEAR     43  37  79 CALM      29.99F
OGDEN          CLEAR     46  34  62 S9        29.97F
SALT LAKE CITY PTCLDY    49  36  61 E7        29.96F
TOOELE VALLEY  PTCLDY    46  36  66 S6        29.97F
WENDOVER       CLOUDY    52  37  56 CALM      29.95F
HEBER CITY     PTCLDY    37  27  65 SE3       30.03F
WEST JORDAN    PTCLDY    50  40  68 S6        29.98F

$$

UTZ011>015-024>027-230800-

CENTRAL/NORTHEAST UTAH

CITY           SKY/WX    TMP DP  RH WIND       PRES   REMARKS
PROVO AIRPORT  PTCLDY    45  34  65 S6        30.00F
MOAB/CANYONLAN MOCLDY    49  16  26 CALM      30.06S
DELTA          PTCLDY    46  32  57 E5        29.99F
PRICE          CLOUDY    43  21  41 NE7       30.11S
ROOSEVELT      CLOUDY    39  30  70 SW5       30.12F
VERNAL         CLOUDY    44  26  49 NW6       30.09F

$$

UTZ013>016-019>022-027-230800-

SOUTHERN UTAH

CITY           SKY/WX    TMP DP  RH WIND       PRES   REMARKS
BRYCE CANYON   PTCLDY    32  23  69 W6        30.18F WCI  26
CEDAR CITY     MOCLDY    42  31  64 E3        30.02F
MILFORD        MOCLDY    45  31  58 S5        30.00F
ST GEORGE      MOSUNNY   65  29  25 CALM      29.94S
HANKSVILLE     PTCLDY    50  14  23 CALM      30.08F
BLANDING       PTCLDY    44  18  34 N8        30.20S

$$

REGIONAL REPORTS     COLORADO/ARIZONA

CITY           SKY/WX    TMP DP  RH WIND       PRES   REMARKS
CRAIG, CO      CLOUDY    33  27  78 CALM      30.14R
GRAND JUNCTION CLOUDY    48  21  34 E10       30.09R
RIFLE, CO      CLOUDY    41  27  57 CALM      30.14S
MONTROSE, CO   CLOUDY    42  18  37 SE9       30.16F
CORTEZ, CO     CLOUDY    34  23  64 E5        30.16F WCI  30
COLORADO CITY    N/A     57  27  30 SE7       30.05F
PAGE, AZ       PTCLDY    55  23  28 SW3       30.04F
GRAND CANYON   CLEAR     38  23  55 E5        30.13F WCI  34
KINGMAN, AZ    CLEAR     55  26  32 CALM      29.96S
FLAGSTAFF, AZ  CLEAR     37  21  52 CALM      30.17F

$$

REGIONAL REPORTS    NEVADA/IDAHO/WYOMING

CITY           SKY/WX    TMP DP  RH WIND       PRES   REMARKS
LAS VEGAS, NV  MOCLDY    71  26  18 SW3       29.84F
ELY, NY        CLOUDY    50  27  40 SW13      30.00S
ELKO, NV       MOCLDY    50  40  68 N5        29.91S
POCATELLO, ID  PTCLDY    50  30  46 E6        29.95F
BURLEY, ID     CLOUDY    54  28  36 S18G24    29.89F
FORT BRIDGER,    N/A     38  27  62 S9        30.09F WCI  32
EVANSTON, WY   CLOUDY    38  25  59 S10       30.06F WCI  31
ROCK SPRINGS,  CLOUDY    41  22  46 CALM      30.07F
KEMMERER, WY     N/A     36  28  75 N3        30.08F

$$




USA.gov is the U.S. government's official web portal to all federal, state and local government web resources and services.